Hourly Weather Barra

Today, 8 May, Saturday

Time Temperature Precipitation Wind Pressure Humidity
00:00 +18°C° 0 mm 1 mps 749 mmHg 81%
01:00 +18°C° 0 mm 1 mps 749 mmHg 82%
02:00 +18°C° 0 mm 1 mps 748 mmHg 82%
03:00 +18°C° 0 mm 1 mps 748 mmHg 82%
04:00 +16°C° 0 mm 2 mps 748 mmHg 84%
05:00 +17°C° 0 mm 2 mps 748 mmHg 83%
06:00 +18°C° 0 mm 1 mps 749 mmHg 81%
07:00 +18°C° 0 mm 1 mps 749 mmHg 80%
08:00 +20°C° 0 mm 1 mps 749 mmHg 72%
09:00 +23°C° 0 mm 1 mps 749 mmHg 63%
10:00 +25°C° 0 mm 1 mps 750 mmHg 53%
11:00 +26°C° 0 mm 1 mps 749 mmHg 52%
12:00 +26°C° 0 mm 2 mps 749 mmHg 51%
13:00 +27°C° 0 mm 2 mps 748 mmHg 50%
14:00 +26°C° 0 mm 2 mps 748 mmHg 54%
15:00 +26°C° 0 mm 2 mps 748 mmHg 57%
16:00 +25°C° 0 mm 2 mps 747 mmHg 61%
17:00 +24°C° 0 mm 2 mps 748 mmHg 68%
18:00 +21°C° 0 mm 2 mps 748 mmHg 74%
19:00 +20°C° 0 mm 2 mps 749 mmHg 81%
20:00 +19°C° 0 mm 2 mps 749 mmHg 84%
21:00 +19°C° 0 mm 2 mps 749 mmHg 86%
22:00 +18°C° 0 mm 2 mps 750 mmHg 88%
23:00 +18°C° 0 mm 2 mps 750 mmHg 89%

Tomorrow, 9 May, Sunday

Time Temperature Precipitation Wind Pressure Humidity
00:00 +18°C° 0 mm 2 mps 749 mmHg 90%
01:00 +17°C° 0 mm 2 mps 749 mmHg 90%
02:00 +17°C° 0 mm 2 mps 749 mmHg 90%
03:00 +17°C° 0 mm 2 mps 749 mmHg 90%
04:00 +17°C° 0 mm 2 mps 749 mmHg 90%
05:00 +18°C° 0 mm 2 mps 749 mmHg 90%
06:00 +18°C° 0 mm 2 mps 749 mmHg 90%
07:00 +18°C° 0 mm 2 mps 750 mmHg 90%
08:00 +20°C° 0 mm 2 mps 750 mmHg 82%
09:00 +23°C° 0 mm 2 mps 750 mmHg 73%
10:00 +26°C° 0 mm 2 mps 750 mmHg 64%
11:00 +26°C° 0 mm 2 mps 749 mmHg 63%
12:00 +27°C° 0 mm 3 mps 749 mmHg 62%
13:00 +28°C° 0 mm 3 mps 748 mmHg 60%
14:00 +27°C° 0 mm 3 mps 748 mmHg 63%
15:00 +27°C° 0 mm 3 mps 748 mmHg 67%
16:00 +26°C° 0 mm 3 mps 747 mmHg 70%
17:00 +25°C° 0 mm 3 mps 748 mmHg 78%
18:00 +22°C° 0 mm 3 mps 749 mmHg 86%
19:00 +21°C° 0 mm 3 mps 749 mmHg 94%
20:00 +21°C° 0 mm 3 mps 749 mmHg 93%
21:00 +21°C° 0 mm 3 mps 749 mmHg 93%
22:00 +21°C° 0 mm 2 mps 749 mmHg 92%
23:00 +21°C° 0 mm 2 mps 749 mmHg 92%

Day after tomorrow, 10 May, Monday

Time Temperature Precipitation Wind Pressure Humidity
00:00 +21°C° 0 mm 2 mps 749 mmHg 92%
01:00 +21°C° 0 mm 2 mps 749 mmHg 91%
02:00 +21°C° 0 mm 2 mps 748 mmHg 91%
03:00 +21°C° 0 mm 2 mps 748 mmHg 91%
04:00 +21°C° 0 mm 2 mps 748 mmHg 91%
05:00 +21°C° 0.1 mm 2 mps 748 mmHg 91%
06:00 +21°C° 0.1 mm 3 mps 748 mmHg 92%
07:00 +21°C° 0.1 mm 3 mps 749 mmHg 92%
08:00 +22°C° 0.1 mm 3 mps 749 mmHg 86%
09:00 +25°C° 0.1 mm 3 mps 749 mmHg 80%
10:00 +27°C° 0.1 mm 4 mps 750 mmHg 74%
11:00 +27°C° 0 mm 4 mps 749 mmHg 72%
12:00 +28°C° 0 mm 4 mps 749 mmHg 70%
13:00 +28°C° 0 mm 4 mps 748 mmHg 67%
14:00 +28°C° 0.1 mm 4 mps 748 mmHg 71%
15:00 +27°C° 0.1 mm 4 mps 747 mmHg 74%
16:00 +27°C° 0.1 mm 4 mps 747 mmHg 77%
17:00 +26°C° 0.3 mm 3 mps 747 mmHg 83%
18:00 +25°C° 0.3 mm 3 mps 748 mmHg 88%
19:00 +22°C° 0.3 mm 3 mps 748 mmHg 94%
20:00 +23°C° 1.3 mm 2 mps 749 mmHg 95%
21:00 +23°C° 1.3 mm 2 mps 749 mmHg 95%
22:00 +23°C° 1.3 mm 2 mps 749 mmHg 96%
23:00 +23°C° 0.7 mm 2 mps 749 mmHg 96%

11 May, Tuesday

Time Temperature Precipitation Wind Pressure Humidity
00:00 +23°C° 0.7 mm 1 mps 749 mmHg 97%
01:00 +23°C° 0.7 mm 1 mps 749 mmHg 97%
02:00 +23°C° 0.4 mm 1 mps 748 mmHg 97%
03:00 +21°C° 0.4 mm 2 mps 748 mmHg 97%
04:00 +21°C° 0.4 mm 2 mps 748 mmHg 97%
05:00 +21°C° 0 mm 2 mps 748 mmHg 97%
06:00 +21°C° 0 mm 2 mps 749 mmHg 96%
07:00 +21°C° 0 mm 2 mps 749 mmHg 96%
08:00 +24°C° 0.1 mm 2 mps 749 mmHg 92%
09:00 +25°C° 0.1 mm 2 mps 750 mmHg 87%
10:00 +26°C° 0.1 mm 2 mps 750 mmHg 83%
11:00 +27°C° 0.2 mm 2 mps 749 mmHg 79%
12:00 +27°C° 0.2 mm 3 mps 749 mmHg 75%
13:00 +28°C° 0.2 mm 3 mps 748 mmHg 71%
14:00 +28°C° 0.2 mm 3 mps 748 mmHg 73%
15:00 +27°C° 0.2 mm 3 mps 748 mmHg 75%
16:00 +27°C° 0.2 mm 3 mps 748 mmHg 76%
17:00 +26°C° 0.3 mm 3 mps 748 mmHg 82%
18:00 +25°C° 0.3 mm 3 mps 749 mmHg 87%
19:00 +24°C° 0.3 mm 2 mps 749 mmHg 93%
20:00 +23°C° 0.3 mm 2 mps 749 mmHg 93%
21:00 +23°C° 0.3 mm 2 mps 750 mmHg 94%
22:00 +23°C° 0.3 mm 1 mps 750 mmHg 95%
23:00 +22°C° 0.1 mm 1 mps 749 mmHg 95%

12 May, Wednesday

Time Temperature Precipitation Wind Pressure Humidity
00:00 +22°C° 0.1 mm 1 mps 749 mmHg 95%
01:00 +22°C° 0.1 mm 1 mps 749 mmHg 96%
02:00 +21°C° 0 mm 2 mps 749 mmHg 96%
03:00 +21°C° 0 mm 2 mps 749 mmHg 96%
04:00 +21°C° 0 mm 2 mps 748 mmHg 96%
05:00 +21°C° 0 mm 2 mps 749 mmHg 96%
06:00 +21°C° 0 mm 2 mps 749 mmHg 96%
07:00 +21°C° 0 mm 2 mps 750 mmHg 96%
08:00 +22°C° 0.2 mm 3 mps 750 mmHg 91%
09:00 +25°C° 0.2 mm 3 mps 750 mmHg 86%
10:00 +26°C° 0.2 mm 3 mps 750 mmHg 81%
11:00 +27°C° 0.5 mm 4 mps 750 mmHg 79%
12:00 +27°C° 0.5 mm 4 mps 749 mmHg 77%
13:00 +27°C° 0.5 mm 4 mps 749 mmHg 74%
14:00 +27°C° 0.7 mm 4 mps 749 mmHg 79%
15:00 +26°C° 0.7 mm 4 mps 749 mmHg 83%
16:00 +25°C° 0.7 mm 4 mps 748 mmHg 88%
17:00 +25°C° 0.4 mm 3 mps 749 mmHg 90%
18:00 +24°C° 0.4 mm 3 mps 749 mmHg 92%
19:00 +22°C° 0.4 mm 3 mps 749 mmHg 94%
20:00 +22°C° 0.4 mm 3 mps 750 mmHg 94%
21:00 +21°C° 0.4 mm 3 mps 750 mmHg 94%
22:00 +21°C° 0.4 mm 3 mps 750 mmHg 95%
23:00 +21°C° 0.5 mm 4 mps 750 mmHg 95%

13 May, Thursday

Time Temperature Precipitation Wind Pressure Humidity
00:00 +21°C° 0.5 mm 4 mps 750 mmHg 95%
01:00 +21°C° 0.5 mm 4 mps 749 mmHg 95%
02:00 +22°C° 0.6 mm 4 mps 749 mmHg 95%
03:00 +22°C° 0.6 mm 4 mps 749 mmHg 95%
04:00 +22°C° 0.6 mm 5 mps 749 mmHg 95%
05:00 +22°C° 0.5 mm 5 mps 749 mmHg 95%
06:00 +22°C° 0.5 mm 5 mps 749 mmHg 95%
07:00 +22°C° 0.5 mm 5 mps 750 mmHg 95%
08:00 +22°C° 0.4 mm 5 mps 750 mmHg 94%
09:00 +23°C° 0.4 mm 5 mps 750 mmHg 93%
10:00 +23°C° 0.4 mm 5 mps 751 mmHg 92%
11:00 +23°C° 0.4 mm 5 mps 750 mmHg 91%
12:00 +23°C° 0.4 mm 5 mps 749 mmHg 89%
13:00 +25°C° 0.4 mm 5 mps 749 mmHg 88%
14:00 +25°C° 0.4 mm 5 mps 749 mmHg 88%
15:00 +25°C° 0.4 mm 5 mps 748 mmHg 88%
16:00 +25°C° 0.4 mm 5 mps 748 mmHg 89%
17:00 +23°C° 0.6 mm 5 mps 749 mmHg 90%
18:00 +22°C° 0.6 mm 5 mps 749 mmHg 92%
19:00 +22°C° 0.6 mm 5 mps 749 mmHg 94%
20:00 +22°C° 0.7 mm 5 mps 750 mmHg 94%
21:00 +21°C° 0.7 mm 5 mps 750 mmHg 94%
22:00 +21°C° 0.7 mm 5 mps 750 mmHg 94%
23:00 +21°C° 0.6 mm 5 mps 750 mmHg 94%
Show more